Back to catalog

OSCAR 24

AliveAmateur RadioPO
NORAD 15936·PAYLOAD·🇺🇸 United States

Launched Aug 3, 1985 from Vandenberg Space Force Base

Loading…

Next Passes (next 24 hours)

TLE

FreshSource: Space-Track

Epoch: Sep 14, 2026, 13:26 UTC

1 15936U 85066B   26257.56029914  .00000042  00000-0  59096-4 0  9996
2 15936  90.1623  96.9630 0169948  32.5783 343.2274 13.35978608  3272

Track OSCAR 24 in real time with AllMySat

Download on the App Store